FW1761 Weather Reports


time (UTC)temp
C
wind
direction
speed
KPH
gust
KPH
rain 1hr
cm
rain 24hr
cm
rain mn
cm
humidity
%
barometer
mb
20260506044552 0 0.0 0.0 0.00 1.45 1.45 93 1017.8
20260506043036 0 0.0 0.0 0.00 1.45 1.45 93 1017.6
20260506041537 0 0.0 0.0 0.00 1.45 1.45 93 1017.8
20260506040028 0 0.0 0.0 0.00 1.45 1.45 93 1017.5
20260506034524 0 0.0 0.0 0.00 1.52 1.45 93 1017.4
20260506033019 0 0.0 0.0 0.00 1.52 1.45 93 1017.3
20260506031517 0 0.0 0.0 0.00 1.52 1.45 93 1017.0
20260506030010 0 0.0 0.0 0.03 1.83 1.45 93 1016.5
20260506024506 0 0.0 0.0 0.03 1.83 1.45 93 1016.2
20260506023000 0 0.0 0.0 0.03 1.83 1.45 93 1015.9
20260506021603 0 0.0 0.0 0.05 1.83 1.45 93 1015.5
20260506020053 0 0.0 0.0 0.03 1.80 1.42 93 1015.2
20260506014555 0 0.0 0.0 0.03 1.80 1.42 93 1015.1
20260506013047 0 0.0 0.0 0.03 1.80 1.42 93 1014.7
20260506011539 0 0.0 0.0 0.00 1.78 1.42 93 1014.5
20260506010036 0 0.0 0.0 0.00 1.78 1.42 93 1013.9
20260506004550 0 0.0 0.0 0.00 1.78 1.42 93 1013.8
20260506003026 0 0.0 0.0 0.00 1.78 1.42 93 1013.9
20260506001522 0 0.0 0.0 0.03 1.78 1.42 93 1013.6
20260506000018 0 0.0 0.0 0.03 1.78 1.42 93 1013.5
20260505234531 0 0.0 0.0 0.03 1.78 1.42 93 1013.3
20260505233010 0 0.0 0.0 0.03 1.78 1.42 93 1013.0
20260505231508 0 0.0 0.0 0.00 1.75 1.40 93 1012.8
20260505230100 0 0.0 0.0 0.03 1.75 1.40 92 1012.9
20260505224556 0 0.0 0.0 0.03 1.75 1.40 92 1012.7
20260505223101 0 0.0 0.0 0.03 1.75 1.40 92 1012.6
20260505221559 1 0.0 0.0 0.03 1.75 1.40 92 1011.8
20260505220048 1 0.0 0.0 0.03 1.73 1.37 92 1012.3
20260505214543 1 0.0 0.0 0.05 1.73 1.37 93 1011.6
20260505213034 1 0.0 0.0 0.05 1.73 1.37 93 1011.4
20260505211530 1 0.0 0.0 0.10 1.73 1.37 92 1011.5
20260505210028 1 0.0 0.0 0.13 1.70 1.35 91 1011.4
20260505204526 3 0.0 0.0 0.13 1.68 1.32 93 1011.1
20260505203016 2 0.0 0.0 0.13 1.68 1.32 93 1011.1
20260505201512 2 0.0 0.0 0.10 1.63 1.27 93 1011.4
20260505200017 2 0.0 0.0 0.08 1.57 1.22 93 1011.4
20260505194504 2 0.0 0.0 0.10 1.55 1.19 93 1010.8
20260505193059 2 0.0 0.0 0.10 1.55 1.19 93 1011.2
20260505191557 2 0.0 0.0 0.10 1.52 1.17 93 1011.0
20260505190054 2 0.0 0.0 0.10 1.50 1.14 93 1010.7
20260505184547 2 0.0 0.0 0.10 1.42 1.09 92 1010.7
20260505183048 2 0.0 0.0 0.13 1.42 1.09 92 1010.6
20260505181539 2 0.0 0.0 0.15 1.42 1.07 94 1010.9
20260505180033 2 0.0 0.0 0.13 1.40 1.04 93 1010.8
20260505174529 2 0.0 0.0 0.10 1.35 0.99 92 1010.7
20260505173025 2 0.0 0.0 0.08 1.30 0.94 93 1010.7
20260505171520 2 0.0 0.0 0.05 1.27 0.91 93 1010.9
20260505170018 2 0.0 0.0 0.08 1.27 0.91 93 1011.0
20260505164512 2 0.0 0.0 0.08 1.24 0.89 93 1010.8
20260505163009 1 0.0 0.0 0.08 1.22 0.86 93 1010.9
20260505161503 1 0.0 0.0 0.10 1.22 0.86 93 1011.0
20260505160109 1 0.0 0.0 0.08 1.19 0.84 93 1011.0
20260505153052 1 0.0 0.0 0.10 1.14 0.79 93 1010.9
20260505151546 1 0.0 0.0 0.13 1.12 0.76 93 1011.0
20260505124503 0 0.0 0.0 0.08 0.86 0.51 91 1009.8
20260505123058 1 0.0 0.0 0.08 0.84 0.48 90 1009.7
20260505121554 1 0.0 0.0 0.10 0.84 0.48 90 1009.6
20260505120053 1 0.0 0.0 0.10 0.81 0.46 91 1009.4
20260505114547 2 0.0 0.0 0.08 0.79 0.43 91 1009.3
20260505113041 2 0.0 0.0 0.13 0.76 0.41 91 1009.2
20260505111536 2 0.0 0.0 0.15 0.71 0.38 90 1008.9
20260505101525 4 0.0 0.0 0.23 0.58 0.23 90 1008.4
20260505100015 4 0.0 0.0 0.20 0.56 0.20 90 1008.1
20260505094523 5 0.0 0.0 0.15 0.51 0.15 90 1008.1
20260505093006 5 0.0 0.0 0.05 0.41 0.05 89 1007.8
20260505091501 5 0.0 0.0 0.00 0.36 0.00 89 1007.7
20260505090058 5 0.0 0.0 0.00 0.36 0.00 89 1007.4
20260505084554 5 0.0 0.0 0.00 0.36 0.00 89 1007.1
20260505083049 5 0.0 0.0 0.00 0.36 0.00 89 1007.0
20260505081544 5 0.0 0.0 0.00 0.36 0.00 89 1007.0
20260505080040 6 0.0 0.0 0.00 0.36 0.00 88 1006.8
20260505074537 6 0.0 0.0 0.00 0.36 0.00 89 1006.9
20260505073040 6 0.0 0.0 0.00 0.36 0.00 87 1006.8
20260505071529 7 0.0 0.0 0.00 0.36 0.00 91 1006.7
20260505070035 7 0.0 0.0 0.00 0.36 0.00 91 1006.4
20260505064518 7 0.0 0.0 0.00 0.36 0.00 91 1006.1
20260505063014 7 0.0 0.0 0.00 0.36 0.00 91 1006.1
20260505061508 7 0.0 0.0 0.00 0.36 0.00 91 1006.0
20260505060005 6 0.0 0.0 0.00 0.36 0.36 90 1005.9
20260505054611 7 0.0 0.0 0.00 0.36 0.36 90 1005.9
20260505053101 6 0.0 0.0 0.00 0.36 0.36 89 1005.8
20260505051552 7 0.0 0.0 0.00 0.36 0.36 89 1005.5